Terug naar catalogus

STARLINK-37258

ActiefCommunicatieVLEO
NORAD 68951·PAYLOAD·🇺🇸 United States

Gelanceerd May 1, 2026 vanaf Cape Canaveral Space Force Station

Loading…

Volgende Passages (komende 24 uur)

TLE

VersSource: CelesTrak SupGP

Epoch: Sep 15, 2026, 03:35 UTC

1 68951C 26099A   26258.14979167 -.00011268  00000+0 -33294-3 0  2583
2 68951  53.1573 101.0675 0001168  85.9918 117.0751 15.34394898    18

Volg STARLINK-37258 in realtime met AllMySat

Download on the App Store